User: anonymous   Login
Location: Unspecified
(0.0000°N, 0.0000°E)
Time: 10:14:43
(UTC+00:00)
Language:

GONETS M 10 (M20) - Orbit

View from above orbital plane
View from above orbital plane
View from above satellite
View from above satellite

Ground track
Ground track

The orbit data is extracted from the following two-line orbital elements,

1 40063U 14036C   17080.87921848 +.00000010 +00000-0 +00000-0 0  9991
2 40063 082.5064 243.2778 0020655 299.8526 060.0503 12.42892702123278
Epoch (UTC): 21 March 2017 21:06:04
Eccentricity: 0.0020655
inclination: 82.5064°
perigee height: 1478 km
apogee height: 1510 km
right ascension of ascending node: 243.2778°
argument of perigee: 299.8526°
revolutions per day: 12.42892702
mean anomaly at epoch: 60.0503°
orbit number at epoch: 12327

The dashed part of the orbit path shows where the satellite is in the earth's shadow,  

DLR